Overview Statistics Trail Chart Weather Telemetry Raw packets
 

This is the latest recevied weather packets stored in our database for station/object WW5JC. If no packets are shown the sender has not sent any weather packets the latest 10 day(s).

<< 35 36 37 38 39 40 41 >>
Time Temp. Humidity Pressure Rain* Wind** Luminosity Snow
1788388718 35.56° C 50% 1014.1 hPa 0 mm - 225 W/m² -
1788388417 35.56° C 51% 1014 hPa 0 mm - 243 W/m² -
1788388117 35.56° C 51% 1014.1 hPa 0 mm - 243 W/m² -
1788387815 35.56° C 50% 1014.3 hPa 0 mm - 254 W/m² -
1788387510 35.56° C 49% 1014.2 hPa 0 mm - 263 W/m² -
1788387209 35.56° C 51% 1014.1 hPa 0 mm - 284 W/m² -
1788386905 35.56° C 52% 1014.4 hPa 0 mm - 192 W/m² -
1788386604 36.11° C 50% 1014.4 hPa 0 mm - 300 W/m² -
1788386300 35.56° C 49% 1014.3 hPa 0 mm - 337 W/m² -
1788386001 35.56° C 49% 1014.4 hPa 0 mm - 362 W/m² -
1788385691 36.11° C 49% 1014.4 hPa 0 mm - 367 W/m² -
1788385389 35.56° C 50% 1014.4 hPa 0 mm - 307 W/m² -
1788385085 35.56° C 49% 1014.6 hPa 0 mm - 109 W/m² -
1788384780 35.56° C 50% 1014.5 hPa 0 mm - 236 W/m² -
1788384479 35° C 51% 1014.6 hPa 0 mm - 460 W/m² -
1788384202 35.56° C 50% 1014.7 hPa 0 mm - 82 W/m² -
1788383872 36.11° C 49% 1014.9 hPa 0 mm - 436 W/m² -
1788383567 36.11° C 48% 1014.9 hPa 0 mm - 452 W/m² -
1788383261 36.11° C 48% 1014.9 hPa 0 mm - 457 W/m² -
1788382957 36.11° C 47% 1014.9 hPa 0 mm - 472 W/m² -
1788382655 35.56° C 48% 1015 hPa 0 mm - 491 W/m² -
1788382350 35.56° C 49% 1015.1 hPa 0 mm - 263 W/m² -
1788382045 35.56° C 48% 1015.2 hPa 0 mm - 548 W/m² -
1788381741 36.11° C 46% 1015.1 hPa 0 mm - 530 W/m² -
1788381435 35.56° C 49% 1015.4 hPa 0 mm - 605 W/m² -

* Rain latest hour (hover to see other rain measurements)
** Current wind speed in m/s (hover to see current wind gust speed)